ROMMA est une association bénévole à but non lucratif. Votre soutien est indispensable : ADHERER à ROMMA ou FAIRE un DON

Saint-Léger-les-Mélèzes - (05, Hautes-Alpes)

Champsaur (1245 m)   Longitude: 6° 11' 42" E    Latitude: 44° 38' 38" N Station partenaire n°51
 

Détail journalier du     <<     >>

Température Humidité Vent Dir Rafale Dir. rafale Ensol.
Heure (°C) (%) (km/h) (km/h) (min)
01:00 1.2705S10S0
02:00 1.4653S8S0
03:00 1.3643S10S0
04:00 0.4695S10S0
05:00 0.3703S10S0
06:00 0.8692S8SSE0
07:00 1.3693SSO6SSO0
08:00 1.8683S8SSE0
09:00 2.1663SSO8S0
10:00 2.9641SSO5SSO0
11:00 5.15503E0
12:00 7.1632SSO8SSO30
13:00 8.3612SSO10S60
14:00 8.8603SSO18O60
15:00 8.7542O11ONO60
16:00 8.0551SO10SSO50
17:00 6.9611S13O40
18:00 5.3642S8S20
19:00 3.7703S8S0
20:00 3.1714SSO8S0
21:00 2.3704S8S0
22:00 2.7724S8S0
23:00 2.3744S8S0
minuit 2.2733S8S0

Graphique du 09-02-2019

 

Serveur OMMA